Location: Benalto
(52.3088°N, 114.2787°W)
Time: 02:02:37
(UTC+00:00)

Envisat - Visible Passes

Search period start: 09 December 2021 00:00
Search period end: 19 December 2021 00:00
Orbit: 764 x 766 km, 98.2° (Epoch: 08 December)

Date Brightness Start Highest point End Pass type
(mag) Time Alt. Az. Time Alt. Az. Time Alt. Az.
09 Dec 4.8 00:24:35 10° SSW 00:29:13 35° W 00:33:52 10° NNW visible
09 Dec 3.7 12:26:51 10° NNE 12:31:51 54° E 12:36:49 10° S visible
09 Dec 3.8 14:06:20 10° N 14:10:37 28° WNW 14:14:54 10° WSW visible
10 Dec 6.2 01:30:36 10° W 01:32:10 11° W 01:33:43 10° WNW visible
10 Dec 4.9 11:50:22 10° NNE 11:54:44 28° E 11:59:05 10° SSE visible
10 Dec 3.1 13:29:05 10° N 13:34:01 51° WNW 13:38:55 10° SW visible
11 Dec 5.6 00:50:49 10° SW 00:54:46 22° W 00:58:44 10° NW visible
11 Dec 5.8 11:14:36 10° NE 11:17:25 15° E 11:20:13 10° ESE visible
11 Dec 2.9 12:52:06 10° NNE 12:57:14 85° ESE 13:02:19 10° SSW visible
11 Dec 4.2 14:32:06 10° N 14:35:39 19° NW 14:39:11 10° W visible
12 Dec 4.4 00:12:45 10° S 00:17:34 43° W 00:22:25 10° NNW visible
12 Dec 4.0 12:15:21 10° NNE 12:20:14 44° E 12:25:05 10° S visible
12 Dec 3.6 13:54:37 10° N 13:59:09 33° WNW 14:03:41 10° SW visible
13 Dec 6.0 01:17:46 10° WSW 01:20:25 14° W 01:23:05 10° NW visible
13 Dec 5.2 11:39:01 10° NE 11:43:03 23° E 11:47:04 10° SE visible
13 Dec 2.9 13:17:28 10° N 13:22:29 62° WNW 13:27:29 10° SSW visible
13 Dec 4.6 14:58:13 10° NNW 15:00:34 13° NW 15:02:56 10° WNW visible
14 Dec 5.3 00:38:48 10° SSW 00:43:05 27° W 00:47:24 10° NW visible
14 Dec 6.0 11:03:51 10° ENE 11:05:39 12° E 11:07:29 10° ESE visible
14 Dec 3.2 12:40:32 10° NNE 12:45:39 71° ESE 12:50:43 10° S visible
14 Dec 4.1 14:20:18 10° N 14:24:13 23° WNW 14:28:07 10° WSW visible
15 Dec 4.0 00:01:00 10° S 00:05:57 52° W 00:10:56 10° NNW visible
15 Dec 4.4 12:03:54 10° NNE 12:08:36 36° E 12:13:16 10° SSE visible
15 Dec 3.4 13:42:56 10° N 13:47:40 40° WNW 13:52:23 10° SW visible
16 Dec 5.8 01:05:22 10° SW 01:08:41 17° W 01:12:02 10° NW visible
16 Dec 5.4 11:27:45 10° NE 11:31:21 19° E 11:34:57 10° SE visible
16 Dec 2.8 13:05:52 10° NNE 13:10:57 75° WNW 13:16:02 10° SSW visible
16 Dec 4.5 14:46:14 10° NNW 14:49:11 16° NW 14:52:08 10° W visible
17 Dec 4.9 00:26:51 10° SSW 00:31:25 33° W 00:36:00 10° NNW visible
17 Dec 3.5 12:29:01 10° NNE 12:34:03 58° E 12:39:03 10° S visible
17 Dec 3.9 14:08:34 10° N 14:12:46 27° WNW 14:16:58 10° WSW visible
18 Dec 6.3 01:33:26 10° W 01:34:24 10° W 01:35:23 10° WNW visible
18 Dec 4.8 11:52:29 10° NNE 11:56:57 30° E 12:01:23 10° SSE visible
18 Dec 3.1 13:31:18 10° N 13:36:11 48° WNW 13:41:03 10° SW visible
